Location: Baia Mare
(47.6567°N, 23.5850°E)
Time: 06:03:13
(UTC+02:00)

ISS - Pass Details

Date: 07 November 2018
Orbit: 401 x 408 km, 51.6° (Epoch: 14 December)

Event Time Altitude Azimuth Distance (km) Brightness Sun altitude
Exits shadow 06:16:28 16° 300° (WNW) 1,163 -2.1 -10.8°
Maximum altitude 06:18:55 53° 15° (NNE) 507 -3.4 -10.4°
Drops below altitude 10° 06:22:16 - 94° (E) 1,514 0.7 -9.8°
Sets 06:24:16 0° 99° (E) 2,331 2.4 -9.5°
